�������C�����ː����j�^�v���󋵏��
Date,Time,Cs137(Bq/L),Cs134(Bq/L),�S��(Bq/L)
2019/07/31,00:00,0.62,ND,ND
2019/07/31,00:10,0.64,ND,ND
2019/07/31,00:20,0.64,ND,ND
2019/07/31,00:30,0.62,ND,ND
2019/07/31,00:40,0.61,ND,ND
2019/07/31,00:50,0.61,ND,ND
2019/07/31,01:00,0.60,ND,ND
2019/07/31,01:10,0.58,ND,ND
2019/07/31,01:20,0.60,ND,ND
2019/07/31,01:30,0.61,ND,ND
2019/07/31,01:40,0.60,ND,9.3
2019/07/31,01:50,0.60,ND,10
2019/07/31,02:00,0.60,ND,ND
2019/07/31,02:10,0.65,ND,ND
2019/07/31,02:20,0.57,ND,ND
2019/07/31,02:30,0.57,ND,ND
2019/07/31,02:40,0.62,ND,ND
2019/07/31,02:50,0.55,ND,ND
2019/07/31,03:00,0.56,ND,ND
2019/07/31,03:10,0.57,ND,ND
2019/07/31,03:20,0.56,ND,ND
2019/07/31,03:30,0.55,ND,ND
2019/07/31,03:40,0.56,ND,ND
2019/07/31,03:50,0.56,ND,ND
2019/07/31,04:00,0.60,ND,9.0
2019/07/31,04:10,0.60,ND,12
2019/07/31,04:20,0.60,ND,10
2019/07/31,04:30,0.60,ND,10
2019/07/31,04:40,0.59,ND,11
2019/07/31,04:50,0.59,ND,9.2
2019/07/31,05:00,0.60,ND,ND
2019/07/31,05:10,0.61,ND,ND
2019/07/31,05:20,0.63,ND,ND
2019/07/31,05:30,0.63,ND,ND
2019/07/31,05:40,0.62,ND,ND
2019/07/31,05:50,0.64,ND,ND
2019/07/31,06:00,0.66,ND,9.6
2019/07/31,06:10,0.65,ND,11
2019/07/31,06:20,0.66,ND,11
2019/07/31,06:30,0.67,ND,14
2019/07/31,06:40,0.69,ND,9.5
2019/07/31,06:50,0.70,ND,9.0
2019/07/31,07:00,0.69,ND,ND
2019/07/31,07:10,0.70,ND,ND
2019/07/31,07:20,0.69,ND,ND
2019/07/31,07:30,0.69,ND,ND
2019/07/31,07:40,0.67,ND,ND
2019/07/31,07:50,0.67,ND,ND
2019/07/31,08:00,0.68,ND,ND
2019/07/31,08:10,0.64,ND,ND
2019/07/31,08:20,0.62,ND,ND
2019/07/31,08:30,0.67,ND,ND
2019/07/31,08:40,0.64,ND,ND
2019/07/31,08:50,0.64,ND,ND
2019/07/31,09:00,0.64,ND,ND
2019/07/31,09:10,0.69,ND,ND
2019/07/31,09:20,0.72,ND,ND
2019/07/31,09:30,0.67,ND,ND
2019/07/31,09:40,0.67,ND,ND
2019/07/31,09:50,0.67,ND,ND
2019/07/31,10:00,0.64,ND,ND
2019/07/31,10:10,0.62,ND,ND
2019/07/31,10:20,0.65,ND,ND
2019/07/31,10:30,0.64,ND,ND
2019/07/31,10:40,0.64,ND,8.8
2019/07/31,10:50,0.64,ND,ND
2019/07/31,11:00,0.64,ND,ND
2019/07/31,11:10,0.65,ND,ND
2019/07/31,11:20,0.59,ND,ND
2019/07/31,11:30,0.59,ND,ND
2019/07/31,11:40,0.59,ND,ND
2019/07/31,11:50,0.59,ND,ND
2019/07/31,12:00,0.60,ND,ND
2019/07/31,12:10,0.61,ND,ND
2019/07/31,12:20,0.62,ND,ND
2019/07/31,12:30,0.61,ND,ND
2019/07/31,12:40,0.61,ND,ND
2019/07/31,12:50,0.61,ND,ND
2019/07/31,13:00,0.61,ND,ND
2019/07/31,13:10,0.65,ND,ND
2019/07/31,13:20,0.65,ND,ND
2019/07/31,13:30,0.66,ND,ND
2019/07/31,13:40,0.62,ND,ND
2019/07/31,13:50,0.61,ND,ND
2019/07/31,14:00,0.58,ND,ND
2019/07/31,14:10,0.58,ND,ND
2019/07/31,14:20,0.56,ND,ND
2019/07/31,14:30,0.56,ND,ND
2019/07/31,14:40,0.57,ND,ND
2019/07/31,14:50,0.58,ND,ND
2019/07/31,15:00,0.62,ND,ND
2019/07/31,15:10,0.63,ND,ND
2019/07/31,15:20,0.65,ND,ND
2019/07/31,15:30,0.65,ND,ND
2019/07/31,15:40,0.62,ND,ND
2019/07/31,15:50,0.62,ND,ND
2019/07/31,16:00,0.61,ND,ND
2019/07/31,16:10,0.60,ND,ND
2019/07/31,16:20,0.59,ND,ND
2019/07/31,16:30,0.60,ND,ND
2019/07/31,16:40,0.60,ND,ND
2019/07/31,16:50,0.60,ND,ND
2019/07/31,17:00,0.60,ND,ND
2019/07/31,17:10,0.60,ND,ND
2019/07/31,17:20,0.60,ND,ND
2019/07/31,17:30,0.61,ND,ND
2019/07/31,17:40,0.62,ND,ND
2019/07/31,17:50,0.61,ND,ND
2019/07/31,18:00,0.62,ND,ND
2019/07/31,18:10,0.62,ND,ND
2019/07/31,18:20,0.62,ND,ND
2019/07/31,18:30,0.61,ND,ND
2019/07/31,18:40,0.61,ND,ND
2019/07/31,18:50,0.62,ND,ND
2019/07/31,19:00,0.61,ND,ND
2019/07/31,19:10,0.61,ND,ND
2019/07/31,19:20,0.62,ND,ND
2019/07/31,19:30,0.62,ND,ND
2019/07/31,19:40,0.64,ND,ND
2019/07/31,19:50,0.64,ND,ND
2019/07/31,20:00,0.68,ND,ND
2019/07/31,20:10,0.70,ND,ND
2019/07/31,20:20,0.71,ND,ND
2019/07/31,20:30,0.72,ND,ND
2019/07/31,20:40,0.70,ND,ND
2019/07/31,20:50,0.68,ND,ND
2019/07/31,21:00,0.68,ND,ND
2019/07/31,21:10,0.66,ND,ND
2019/07/31,21:20,0.65,ND,ND
2019/07/31,21:30,0.64,ND,ND
2019/07/31,21:40,0.71,ND,ND
2019/07/31,21:50,0.70,ND,ND
2019/07/31,22:00,0.72,ND,ND
2019/07/31,22:10,0.72,ND,ND
2019/07/31,22:20,0.72,ND,ND
2019/07/31,22:30,0.74,ND,ND
2019/07/31,22:40,0.68,ND,ND
2019/07/31,22:50,0.67,ND,ND
2019/07/31,23:00,0.67,ND,ND
2019/07/31,23:10,0.69,ND,ND
2019/07/31,23:20,0.72,ND,ND
2019/07/31,23:30,0.69,ND,ND
2019/07/31,23:40,0.69,ND,ND
2019/07/31,23:50,0.69,ND,ND
